Location: ???????
(55.4362°N, 38.1183°E)
Time: 19:04:24
(UTC+00:00)

GEOS 3 Rocket - Visible Passes

Search period start: 21 October 2021 00:00
Search period end: 31 October 2021 00:00
Orbit: 786 x 833 km, 115.0° (Epoch: 21 October)

Date Brightness Start Highest point End Pass type
(mag) Time Alt. Az. Time Alt. Az. Time Alt. Az.
21 Oct 5.4 02:23:29 10° ENE 02:28:02 31° ESE 02:32:31 10° S visible
22 Oct 6.1 02:00:06 10° ENE 02:03:50 20° ESE 02:07:31 10° SSE visible
23 Oct 6.4 01:37:32 10° E 01:39:32 12° ESE 01:41:31 10° SE visible
23 Oct 4.6 03:13:36 10° NE 03:18:38 50° SE 03:23:35 10° SSW visible
24 Oct 5.4 02:49:54 10° ENE 02:54:33 33° ESE 02:59:08 10° S visible
25 Oct 6.1 02:26:28 10° ENE 02:30:22 21° ESE 02:34:13 10° SSE visible
26 Oct 6.5 02:03:40 10° E 02:06:04 13° ESE 02:08:28 10° SE visible
26 Oct 4.5 03:40:03 10° NE 03:45:07 53° SE 03:50:07 10° SSW visible
27 Oct 5.3 03:16:20 10° ENE 03:21:03 35° SE 03:25:42 10° S visible
28 Oct 6.1 02:52:50 10° ENE 02:56:53 23° ESE 03:00:53 10° S visible
29 Oct 6.5 02:29:52 10° E 02:32:37 14° ESE 02:35:21 10° SE visible
30 Oct 5.3 03:42:46 10° ENE 03:47:33 37° SE 03:52:17 10° SSW visible
